SCP
0 0 0 0 0 0 0 0 0 0 0 0 0 0 0 0 0 0 0 0 0 0 0 0 0 0 0 0 0 0 0 0 0 0 0 0 0 0 0 0 0 0 0
0 0 0 0 0 0 0 0 0 0 0 0 0 0 0 0 0 0 0 0 0 0 0 0 0 0 0 0 0 0 0 0 0 0 0 0 0 0 0 0 0 0 0
0 0 0 0 0 0 0 0 0 0 0 0 0 0 0 0 0 0 0 0 0 0 0 0 0 0 0 0 0 0 0 0 0 0 0 0 0 0 0 0 0 0 0
0 0 0 0 0 0 0 0 0 0 0 0 0 0 0 0 0 0 0 0 0 0 0 0 0 0 0 0 0 0 0 0 0 0 0 0 0 0 0 0 0 0 0
0 0 0 0 0 0 0 0 0 0 0 0 0 0 0 0 0 0 0 0 0 0 0 0 0 0 0 0 0 0 0 0 0 0 0 0 0 0 0 0 0 0 0
0 0 0 0 0 0 0 0 0 0 0 0 0 0 0 0 0 0 0 0 0 0 0 0 0 0 0 0 0 0 0 0 0 0 0 0 0 0 0 0 0 0 0
0 0 0 0 0 0 0 0 0 0 0 0 0 0 0 0 0 0 0 0 0 0 0 0 0 0 0 0 0 0 0 0 0 0 0 0 0 0 0 0 0 0 0
0 0 0 0 0 0 0 0 0 0 0 0 0 0 0 0 0 0 0 0 0 0 0 0 0 0 0 0 0 0 0 0 0 0 0 0 0 0 0 0 0 0 0
0 0 0 0 0 0 0 0 0 0 0 0 0 0 0 0 0 0 0 0 0 0 0 0 0 0 0 0 0 0 0 0 0 0 0 0 0 0 0 0 0 0 0
0 0 0 0 0 0 0 0 0 0 0 0 0 0 0 0 0 0 0 0 0 0 0 0 0 0 0 0 0 0 0 0 0 0 0 0 0 0 0 0 0 0 0
0 0 0 0 0 0 0 0 0 0 0 0 0 0 0 0 0 0 0 0 0 0 0 0 0 0 0 0 0 0 0 0 0 0 0 0 0 0 0 0 0 0 0
0 0 0 0 0 0 0 0 0 0 0 0 0 0 0 0 0 0 0 0 0 0 0 0 0 0 0 0 0 0 0 0 0 0 0 0 0 0 0 0 0 0 0
0 0 0 0 0 0 0 0 0 0 0 0 0 0 0 0 0 0 0 0 0 0 0 0 0 0 0 0 0 0 0 0 0 0 0 0 0 0 0 0 0 0 0
0 0 0 0 0 0 0 0 0 0 0 0 0 0 0 0 0 0 0 0 0 0 0 0 0 0 0 0 0 0 0 0 0 0 0 0 0 0 0 0 0 0 0
0 0 0 0 0 0 0 0 0 0 0 0 0 0 0 0 0 0 0 0 0 0 0 0 0 0 0 0 0 0 0 0 0 0 0 0 0 0 0 0 0 0 0
0 0 0 0 0 0 0 0 0 0 0 0 0 0 0 0 0 0 0 0 0 0 0 0 0 0 0 0 0 0 0 0 0 0 0 0 0 0 0 0 0 0 0
0 0 0 0 0 0 0 0 0 0 0 0 0 0 0 0 0 0 0 0 0 0 0 0 0 0 0 0 0 0 0 0 0 0 0 0 0 0 0 0 0 0 0
0 0 0 0 0 0 0 0 0 0 0 0 0 0 0 0 0 0 0 0 0 0 0 0 0 0 0 0 0 0 0 0 0 0 0 0 0 0 0 0 0 0 0
0 0 0 0 0 0 0 0 0 0 0 0 0 0 0 0 0 0 0 0 0 0 0 0 0 0 0 0 0 0 0 0 0 0 0 0 0 0 0 0 0 0 0
0 0 0 0 0 0 0 0 0 0 0 0 0 0 0 0 0 0 0 0 0 0 0 0 0 0 0 0 0 0 0 0 0 0 0 0 0 0 0 0 0 0 0
0 0 0 0 0 0 0 0 0 0 0 0 0 0 0 0 0 0 0 0 0 0 0 0 0 0 0 0 0 0 0 0 0 0 0 0 0 0 0 0 0 0 0
0 0 0 0 0 0 0 0 0 0 0 0 0 0 0 0 0 0 0 0 0 0 0 0 0 0 0 0 0 0 0 0 0 0 0 0 0 0 0 0 0 0 0
0 0 0 0 0 0 0 0 0 0 0 0 0 0 0 0 0 0 0 0 0 0 0 0 0 0 0 0 0 0 0 0 0 0 0 0 0 0 0 0 0 0 0
0 0 0 0 0 0 0 0 0 0 0 0 0 0 0 0 0 0 0 0 0 0 0 0 0 0 0 0 0 0 0 0 0 0 0 0 0 0 0 0 0 0 0
0 0 0 0 0 0 0 0 0 0 0 0 0 0 0 0 0 0 0 0 0 0 0 0 0 0 0 0 0 0 0 0 0 0 0 0 0 0 0 0 0 0 0
0 0 0 0 0 0 0 0 0 0 0 0 0 0 0 0 0 0 0 0 0 0 0 0 0 0 0 0 0 0 0 0 0 0 0 0 0 0 0 0 0 0 0
Wind_Speed
3 5 9 10 10 10 9 9 9 10 10 10 9 9 9 9 9 9 9 9 9 8 7 7 7 7 7 8 8 8 9 9 10 9 9 9 9 9 9 8 8 5 8
7 7 10 10 10 10 9 9 9 9 9 9 8 9 8 8 8 9 9 8 8 7 7 7 6 6 7 7 8 8 9 9 8 8 7 7 8 8 8 8 8 5 8
8 7 9 10 10 9 9 9 9 8 8 8 8 8 8 8 8 8 8 8 7 7 6 6 6 6 7 7 7 7 8 8 8 7 6 3 4 7 8 8 8 8 8
9 7 7 9 10 9 9 9 8 8 8 8 7 7 8 8 7 7 7 7 7 7 6 6 6 6 6 6 6 6 7 7 7 6 3 2 2 6 8 8 8 8 7
6 6 7 10 10 9 9 9 8 8 7 7 7 7 7 7 7 7 7 7 7 6 6 5 6 6 5 5 5 5 6 6 6 4 2 2 2 6 8 8 8 7 7
5 5 6 10 10 9 8 8 8 7 7 7 7 7 6 6 6 6 6 6 6 6 6 6 5 5 5 5 5 5 5 5 4 2 2 2 2 6 8 8 8 7 7
5 4 6 9 9 9 8 8 8 7 7 7 6 6 6 6 6 6 6 6 6 6 6 6 5 5 5 5 5 4 5 5 3 2 2 2 4 7 8 9 8 8 7
6 5 5 8 8 8 8 8 7 7 7 7 6 6 6 6 6 6 6 6 7 7 6 6 6 5 5 5 5 4 4 4 3 3 3 3 7 9 9 9 9 8 8
5 4 3 4 5 7 7 7 7 7 7 7 6 5 5 5 6 6 6 6 6 7 7 7 7 6 6 6 5 4 4 4 3 3 4 3 7 10 10 10 9 9 8
3 3 3 3 3 3 4 6 6 6 6 6 5 4 4 4 5 5 5 6 6 7 7 7 7 7 7 6 6 5 4 4 3 3 3 4 9 10 10 10 10 9 9
2 1 2 2 2 3 3 4 5 6 6 5 5 4 4 3 3 3 3 4 6 6 6 7 7 7 6 6 6 5 3 2 3 3 3 7 10 11 10 10 10 10 10
2 3 2 3 2 2 3 2 3 3 3 3 3 3 3 2 2 3 3 4 5 6 6 7 6 6 4 2 3 4 2 3 3 3 4 9 11 11 11 11 11 11 11
4 3 3 3 3 3 2 2 1 1 2 2 3 3 2 2 2 2 2 2 3 4 3 4 3 2 2 2 2 2 3 3 2 3 4 9 11 12 12 12 12 12 12
3 4 4 4 3 3 3 2 2 2 2 2 3 3 3 2 2 2 2 2 2 2 2 2 2 2 3 3 4 4 4 3 3 3 4 10 12 12 13 13 13 13 14
4 4 4 4 4 3 2 2 2 2 2 3 3 3 4 3 3 3 2 2 3 2 3 3 2 3 3 4 4 4 5 5 5 5 4 9 11 13 14 15 15 15 15
4 4 3 4 4 3 3 2 2 2 2 2 3 3 4 4 3 3 3 3 3 3 3 3 4 4 4 3 4 5 6 5 5 6 5 6 10 13 15 16 16 16 16
4 3 3 4 3 3 3 3 2 2 2 2 2 3 3 3 3 3 3 3 4 3 3 3 3 3 3 3 4 5 5 5 5 6 6 5 6 10 13 15 16 16 16
4 3 3 2 3 3 3 2 2 2 2 2 2 2 3 3 3 3 3 3 4 3 3 3 3 3 3 3 4 4 4 4 6 6 6 6 5 5 9 13 15 16 17
5 4 3 3 3 3 3 2 2 2 2 2 2 2 2 3 3 3 3 3 3 3 3 3 3 3 3 4 4 4 4 4 5 5 6 6 6 6 6 9 13 14 16
4 4 4 3 3 3 2 1 1 1 1 1 2 2 2 2 3 3 2 3 3 3 3 3 3 3 3 3 4 4 4 5 4 5 6 6 6 7 7 7 7 9 14
3 3 4 3 3 2 2 1 2 2 2 1 2 2 3 2 2 2 2 2 3 3 4 4 3 3 3 2 1 3 4 5 5 5 5 5 6 7 7 7 6 6 6
3 4 3 3 3 3 2 2 2 2 2 2 2 2 3 3 2 2 3 3 3 3 3 4 3 2 2 2 1 2 3 4 4 5 4 5 6 5 7 8 8 8 6
3 4 3 3 3 3 2 1 0 1 1 1 2 2 3 3 3 3 3 3 3 3 4 4 4 4 3 3 3 3 2 4 3 3 5 5 5 5 6 6 8 8 8
3 3 2 2 3 2 2 2 2 2 2 3 3 2 3 3 3 4 4 4 4 3 4 4 4 3 4 3 3 4 4 3 3 4 4 4 5 6 6 6 7 8 8
3 2 2 1 1 1 2 2 2 2 2 2 2 2 3 2 3 3 4 3 4 3 4 4 3 3 4 4 4 3 3 3 4 4 6 5 4 5 6 7 6 7 8
2 3 2 2 1 0 1 1 2 2 2 1 2 2 2 2 2 3 3 3 3 3 4 4 4 4 4 5 4 3 3 3 3 4 5 6 6 6 6 6 7 7 6
Wind_Direction
180 178 158 148 141 138 136 135 132 130 129 127 126 124 123 121 119 119 120 120 121 121 119 119 120 123 121 121 120 120 122 120 121 118 117 118 117 118 116 114 111 101 110
163 167 157 150 146 143 141 136 134 133 134 134 134 133 132 131 129 129 128 126 127 129 127 125 125 125 125 124 123 121 122 123 122 120 116 118 122 125 125 122 124 125 121
147 159 157 153 149 147 143 141 137 137 137 137 139 141 140 139 138 140 137 134 134 136 136 134 134 131 126 126 129 130 131 130 127 125 115 112 131 136 137 133 135 132 130
147 154 158 157 154 151 148 145 145 144 145 144 143 148 149 148 148 149 147 146 144 141 139 137 140 139 137 135 132 133 135 135 133 128 121 141 156 151 146 143 140 137 137
139 152 160 156 157 156 154 152 151 152 153 152 151 154 156 158 159 158 157 157 152 150 147 142 142 145 147 146 146 143 144 142 139 125 122 157 174 169 162 154 148 146 145
136 152 161 160 161 160 160 158 159 160 160 163 162 162 166 169 171 169 167 164 160 158 153 154 156 159 162 163 165 165 165 156 140 133 147 177 189 182 175 166 161 159 159
141 154 162 162 165 165 165 166 166 168 166 167 170 173 175 175 173 173 171 171 172 175 172 170 174 178 180 182 182 179 179 168 153 162 178 192 204 193 186 178 175 174 177
146 150 158 166 168 168 170 172 174 175 171 170 172 179 184 183 181 183 185 187 188 189 189 190 191 191 193 195 197 196 189 179 176 186 202 206 210 205 197 191 189 189 193
137 143 156 169 172 174 176 177 183 183 178 176 177 179 185 186 190 195 198 201 200 200 200 202 203 202 205 208 209 212 197 187 184 199 211 214 216 214 208 203 200 201 202
122 139 157 172 173 182 189 187 186 187 186 185 186 187 192 196 198 202 207 211 210 211 211 212 213 213 214 217 220 221 206 191 195 207 212 223 224 221 216 211 210 210 210
125 150 160 167 180 183 192 195 191 192 196 196 196 196 197 207 208 211 221 218 218 219 220 221 222 222 223 224 224 222 210 194 198 214 217 230 227 225 220 215 214 216 216
186 199 181 181 185 185 199 194 195 198 202 202 197 199 201 202 211 212 225 224 228 227 225 227 231 231 229 225 230 224 211 204 205 219 227 232 227 225 222 220 219 221 221
194 194 194 190 187 183 195 186 192 197 200 205 202 199 196 198 210 211 211 226 231 231 228 235 235 232 222 217 222 221 216 212 216 223 229 231 231 230 228 225 224 225 224
191 200 201 190 187 196 192 190 185 188 195 201 206 196 187 197 211 208 208 212 210 212 213 217 227 234 233 232 228 229 227 224 223 223 229 232 234 235 235 231 230 230 229
196 208 207 192 187 193 188 198 187 195 202 206 206 206 195 197 208 212 211 206 212 209 204 208 221 231 239 241 237 236 237 232 226 224 231 231 234 237 240 239 237 235 235
204 208 205 191 190 181 182 191 197 203 206 205 213 217 205 201 204 209 213 206 209 208 210 210 218 224 234 239 242 239 239 236 231 227 229 233 234 237 240 242 243 241 240
200 202 197 192 181 177 183 189 188 199 197 203 213 216 210 206 205 208 216 213 213 209 211 217 225 225 238 246 247 247 242 236 234 232 230 229 232 236 240 244 247 247 245
185 186 196 184 167 178 181 184 183 191 195 205 208 211 213 210 206 199 215 223 217 207 206 212 213 225 236 241 248 250 245 238 236 237 233 231 230 234 238 242 246 248 248
182 177 178 176 175 184 185 183 181 184 195 207 205 208 217 214 216 209 212 228 218 208 210 221 221 218 237 247 252 253 248 244 242 241 237 235 231 230 229 240 244 247 250
180 169 174 178 184 184 181 168 174 196 221 216 217 223 220 222 223 220 219 231 219 210 214 217 227 229 232 241 264 267 259 254 245 239 238 239 236 234 232 234 237 244 247
172 172 182 181 191 174 172 186 194 216 224 226 234 234 224 223 223 223 235 228 219 216 219 217 224 231 239 236 270 285 276 257 247 242 238 240 240 238 234 234 233 235 243
182 188 187 186 190 190 194 204 205 202 217 220 237 245 232 224 221 228 227 222 216 223 226 220 213 220 243 206 207 288 291 293 266 249 247 242 244 238 238 239 235 233 235
187 190 188 191 189 195 192 179 75 63 354 293 272 257 247 226 217 220 224 226 219 216 227 226 213 209 235 234 201 203 239 255 291 265 250 247 246 244 242 240 236 237 236
197 189 185 196 185 191 180 168 173 198 229 241 240 247 259 245 236 230 226 228 226 221 225 228 224 222 215 234 235 222 229 239 259 287 277 254 250 250 247 248 243 241 238
175 165 165 178 181 188 184 180 181 214 228 246 246 245 255 258 244 234 225 224 228 227 227 231 232 228 218 225 233 236 246 254 242 254 277 280 267 249 243 241 242 242 240
161 153 150 149 161 160 164 182 191 209 225 242 264 254 254 256 248 236 225 225 233 235 233 232 231 233 235 235 235 232 234 237 244 245 263 273 273 266 251 241 240 241 241